Location: Sabalos
(43.2860°N, 0.1414°E)
Time: 03:40:02
(UTC+00:00)

Cosmos 1500 Rocket - Pass Details

Date: 05 July 2020
Orbit: 602 x 632 km, 82.5° (Epoch: 06 August)

Event Time Altitude Azimuth Distance (km) Brightness Sun altitude
Exits shadow 23:44:49 37° 88° (E) 981 4.5 -23.9°
Drops below altitude 10° 23:48:46 10° 25° (NNE) 1,991 7.0 -24.0°
Sets 23:51:06 0° 17° (NNE) 2,897 8.2 -24.0°
